Location: Buckenweiler
(49.0667°N, 10.2500°E)
Time: 19:59:01
(UTC+00:00)

Cosmos 1943 Rocket - Pass Details

Date: 18 January 2026
Orbit: 811 x 842 km, 71.0° (Epoch: 15 February)

Event Time Altitude Azimuth Distance (km) Brightness Sun altitude
Exits shadow 06:07:08 - 254° (WSW) 2,843 4.5 -9.5°
Reaches altitude 10° 06:08:33 10° 261° (W) 2,399 4.0 -9.2°
Maximum altitude 06:13:00 25° 316° (NW) 1,600 3.2 -8.6°
Drops below altitude 10° 06:17:30 10° 11° (N) 2,413 4.5 -7.9°
Sets 06:20:23 0° 25° (NNE) 3,351 5.3 -7.4°
